Theta_e
323 322 321 320 319 318 317 316 316 315 316 317 317 316 316 317 317 317 318 318 317 317 317 318 321 319 310 300 302 327 335 337 330 314 306 307 309 310 310 313 315 317 321 322 325 327 331
324 323 322 319 318 317 316 315 315 316 316 316 315 315 315 316 316 316 317 316 316 316 317 318 322 321 302 291 313 330 331 328 317 308 305 310 311 315 312 312 313 318 319 318 318 323 330
324 322 321 318 318 317 316 315 315 316 315 314 314 315 315 315 316 316 316 315 315 316 316 318 323 318 307 298 324 325 326 320 314 308 303 305 313 311 315 314 317 315 311 314 329 329 327
323 322 319 317 317 316 315 315 316 315 314 314 315 315 315 315 315 315 315 314 315 316 317 318 323 312 304 318 323 322 316 313 312 306 307 307 311 309 310 315 308 303 301 298 325 327 328
321 320 318 317 316 316 316 315 315 314 314 314 315 315 315 315 315 313 312 313 317 318 319 322 310 305 306 325 316 318 317 312 310 309 308 313 306 303 303 301 298 299 296 298 303 326 325
319 317 316 316 316 315 314 314 313 313 315 315 315 315 315 315 314 312 311 312 321 320 320 321 318 302 306 307 306 316 317 314 311 309 307 304 300 297 298 298 294 295 295 295 297 321 323
317 316 316 316 315 314 314 314 313 314 315 315 315 315 315 314 313 311 308 301 296 296 307 298 297 301 307 310 307 304 315 314 311 306 298 300 295 293 297 301 302 300 298 297 300 303 301
316 316 316 315 314 313 313 313 314 315 315 315 315 315 313 313 312 311 305 298 300 299 294 304 308 307 309 308 301 302 315 307 307 300 300 297 293 300 303 304 303 301 298 297 302 309 307
316 316 316 314 314 313 313 314 315 315 315 315 315 314 312 312 311 305 299 300 304 300 291 297 302 302 300 305 299 299 306 307 305 299 298 295 301 305 304 302 300 297 296 296 300 302 318
317 316 316 314 315 314 315 315 315 315 315 315 315 313 312 310 302 300 301 304 304 300 286 292 294 300 299 298 294 306 307 306 304 301 300 299 305 306 302 301 300 291 301 302 300 293 289
317 316 315 314 315 314 315 315 315 315 314 314 313 312 311 309 299 300 305 303 301 298 280 296 294 300 295 293 298 299 304 302 299 300 302 300 300 300 298 299 302 299 302 300 298 292 289
316 316 314 314 314 315 315 315 314 314 314 314 312 312 310 303 298 302 304 300 298 287 282 292 295 292 292 293 294 299 300 300 300 295 294 296 298 299 301 303 304 303 296 293 290 288 285
316 315 314 314 313 314 314 314 314 314 313 312 311 309 306 305 299 301 301 298 287 282 294 292 291 291 289 290 293 294 294 292 289 287 285 292 293 295 297 292 297 295 290 283 283 283 284
315 314 314 314 313 314 314 315 314 314 313 311 308 306 306 307 302 302 299 292 283 291 289 294 293 292 291 292 293 293 291 289 293 288 285 285 285 292 297 292 290 291 290 285 280 281 285
315 314 314 314 313 314 315 315 314 314 312 310 307 302 302 304 306 300 295 285 284 288 293 292 291 289 291 293 291 292 289 289 291 289 285 285 286 295 297 295 293 291 287 290 285 283 285
315 314 314 314 313 314 315 315 314 314 312 309 302 301 301 303 303 298 291 288 289 295 296 293 287 288 286 290 290 289 290 294 292 294 289 286 284 289 295 295 295 291 291 287 286 282 281
315 314 314 314 314 315 315 315 314 313 311 308 301 297 303 302 300 295 286 287 293 297 297 292 289 288 287 286 290 289 289 295 298 295 293 286 285 286 290 287 285 287 285 285 285 284 282
315 314 313 314 315 315 316 315 313 311 309 304 298 293 304 301 292 286 286 290 296 294 296 295 294 290 288 288 287 288 289 292 299 296 291 291 285 281 283 290 292 288 285 283 283 282 281
314 315 313 314 315 316 316 315 313 310 309 301 296 294 301 298 287 285 289 293 295 293 292 293 292 292 291 287 285 289 291 297 297 298 292 291 284 279 281 285 288 287 288 283 282 281 280
314 314 314 314 315 316 316 314 313 311 309 301 294 290 294 294 288 289 287 288 291 297 293 294 292 292 290 287 288 287 289 295 296 298 303 294 284 282 279 281 285 286 288 288 283 281 281
313 314 313 314 315 316 316 315 313 311 309 300 294 290 290 287 289 288 288 289 290 289 293 293 291 291 287 284 285 286 289 290 294 297 293 286 283 284 285 288 288 287 287 288 285 284 282
313 313 314 314 315 316 316 315 314 311 309 302 297 293 291 288 288 289 289 287 289 290 290 289 289 291 290 285 285 284 286 286 285 291 287 287 283 283 282 288 287 286 288 289 288 289 288
313 313 313 314 315 316 316 316 314 311 308 302 300 298 294 291 288 286 287 289 291 291 293 294 292 289 289 290 292 290 290 288 286 285 285 284 283 280 277 284 284 280 285 287 289 292 289
313 313 313 313 314 315 316 316 315 313 308 304 301 296 293 289 290 290 293 294 293 292 290 292 292 288 292 295 294 291 289 288 289 287 285 283 281 280 277 278 275 282 289 291 293 296 297
312 312 313 313 314 315 316 317 316 314 311 306 302 301 293 289 292 294 294 293 293 293 292 293 294 293 293 291 285 283 283 283 286 287 285 284 282 278 277 276 281 286 291 291 289 290 296
312 312 313 313 313 314 315 316 316 315 312 305 302 302 297 292 291 297 294 293 289 288 290 293 295 294 293 286 283 278 276 280 281 283 285 286 284 281 278 275 276 283 293 296 294 285 295
311 311 312 313 313 314 315 316 316 316 313 306 305 302 300 293 295 294 292 292 292 289 288 289 290 290 290 283 277 275 274 284 275 280 279 278 280 278 278 276 282 291 293 296 283 284 294
311 311 312 312 312 313 314 315 315 315 315 307 305 304 302 296 297 301 299 295 294 291 288 291 289 287 284 280 278 276 275 279 278 282 280 279 276 281 281 277 276 294 293 288 290 291 292
310 311 311 312 312 313 314 315 315 315 315 307 302 303 305 301 299 303 306 305 302 300 293 289 289 287 286 281 280 278 277 279 275 274 283 278 281 279 281 281 290 293 291 293 293 290 291
Wind_Speed
11 13 14 15 15 15 16 17 17 18 19 18 19 19 19 19 19 18 18 18 17 15 13 10 7 1 0 1 8 3 17 14 7 5 7 7 6 5 5 4 2 4 7 7 9 5 7
10 13 15 16 17 17 17 17 18 19 19 20 20 20 20 19 19 19 19 18 18 15 12 9 5 4 1 1 1 10 11 9 6 6 6 5 8 5 5 2 3 3 7 10 6 7 8
9 12 14 16 16 17 17 18 18 19 20 21 21 20 20 20 20 19 19 19 19 16 12 8 4 3 2 7 2 9 8 4 6 5 6 2 4 3 1 2 3 3 3 4 6 4 5
11 14 14 15 15 16 17 18 18 19 20 21 21 21 21 20 20 20 20 21 20 17 10 7 5 1 6 2 5 8 5 5 5 2 3 4 3 2 1 4 6 3 3 3 3 3 5
14 13 15 17 18 18 19 21 20 20 20 20 21 22 22 21 21 21 20 22 18 5 8 7 2 1 6 5 5 7 4 8 7 3 4 1 4 1 1 3 4 5 3 2 3 2 5
16 17 17 17 18 18 19 20 21 21 21 20 20 21 21 21 19 19 19 13 6 11 5 5 3 2 3 3 4 7 4 12 5 6 3 4 3 3 3 4 5 3 4 2 2 5 1
17 17 18 19 20 20 20 19 20 21 21 21 21 22 22 21 20 18 9 3 4 3 2 7 5 4 4 7 3 4 7 6 6 5 4 3 5 6 7 6 4 3 4 0 2 3 3
18 18 19 21 21 21 21 21 21 21 22 22 22 22 24 22 19 15 4 4 4 2 6 7 5 6 5 2 2 4 11 7 5 5 5 5 5 8 5 4 4 2 5 2 3 0 4
18 19 19 20 21 22 22 20 21 21 21 22 22 22 23 20 21 3 2 3 3 3 3 6 5 4 5 7 4 6 8 5 7 6 5 7 6 7 5 4 3 1 5 3 3 4 3
18 18 19 20 19 22 21 21 21 22 22 23 22 23 20 24 2 3 3 1 7 6 5 3 3 6 4 3 2 3 5 7 3 8 9 4 2 7 4 3 6 1 7 5 2 3 1
18 18 20 19 19 21 22 23 22 23 23 23 24 21 16 8 3 1 5 7 3 5 4 1 2 1 2 5 5 4 2 4 8 5 6 6 7 5 4 6 7 7 6 7 4 3 3
19 19 22 22 23 21 21 23 23 24 25 24 23 18 12 2 0 6 7 6 4 6 3 6 4 2 5 4 2 3 5 8 2 5 3 3 1 3 7 6 9 5 6 8 6 4 3
19 20 21 21 22 22 21 22 24 25 25 26 23 16 3 1 3 5 6 5 6 6 5 8 4 5 3 3 4 5 6 8 4 6 1 4 3 5 4 2 3 5 7 3 4 3 6
19 20 19 20 21 21 22 23 24 25 27 27 22 8 7 4 4 4 4 7 10 4 3 4 4 3 6 4 8 7 4 5 6 6 4 4 4 6 9 4 2 4 8 7 6 6 4
18 20 20 20 21 22 23 23 25 25 26 26 15 2 2 4 3 2 7 8 1 4 5 6 3 7 7 5 5 6 4 3 3 4 4 5 0 5 4 4 2 3 5 3 8 2 5
19 21 21 20 21 22 22 23 25 25 24 21 3 3 4 10 3 5 8 5 3 4 6 3 4 3 5 7 5 6 6 5 7 6 3 1 5 3 5 6 7 7 1 4 4 4 3
18 21 20 20 21 21 22 23 25 24 23 13 4 5 5 8 3 8 6 3 4 7 6 7 4 5 4 3 5 4 6 1 9 6 8 2 4 5 6 9 6 7 6 6 6 3 6
18 19 22 22 22 22 22 23 24 23 22 6 4 4 5 5 7 3 4 4 5 7 8 7 4 6 5 7 7 5 4 4 14 3 4 4 6 6 2 5 5 4 4 3 6 4 2
17 18 21 20 21 22 23 24 24 23 12 2 4 2 4 4 5 4 4 5 5 10 8 8 7 7 5 4 6 4 4 6 13 6 2 1 4 5 4 6 6 7 6 3 4 3 1
17 19 21 21 21 22 23 23 24 22 5 4 4 5 7 7 2 5 3 5 4 6 4 5 5 4 6 8 9 4 4 5 8 8 13 7 4 3 7 4 3 4 5 4 4 4 6
16 17 20 20 19 21 22 23 24 21 3 3 5 1 3 4 6 5 4 3 4 6 5 8 6 7 3 5 5 5 5 6 7 14 7 6 5 4 4 5 3 3 2 4 3 1 3
14 16 18 18 18 18 20 22 23 23 0 7 4 4 4 2 2 5 6 4 5 4 5 5 5 4 7 5 2 2 2 4 1 7 5 4 3 3 2 3 3 3 6 7 5 3 5
13 15 16 17 17 16 18 20 22 25 8 4 2 2 5 4 3 4 2 1 2 2 5 4 2 3 5 2 4 3 2 2 1 2 3 3 5 3 3 2 1 3 0 3 2 2 2
11 14 15 16 16 16 16 17 18 20 10 4 1 3 5 3 3 0 2 2 4 2 4 1 3 3 2 3 4 5 7 5 6 6 2 4 4 3 3 1 4 5 3 6 4 1 1
9 11 12 13 14 15 14 15 16 16 14 5 1 3 4 2 1 2 3 3 3 3 2 2 3 0 0 6 4 5 5 3 5 6 5 2 5 4 4 2 2 4 4 3 1 5 2
8 10 10 11 12 12 13 13 13 13 12 4 2 1 4 6 4 2 3 2 3 2 3 2 2 3 6 4 5 3 2 2 2 2 4 4 6 6 2 4 3 4 1 4 2 4 5
7 8 8 9 11 10 10 11 12 13 13 4 2 2 4 4 4 5 3 5 5 3 2 3 1 4 4 3 4 3 2 2 2 4 1 4 4 4 2 2 5 2 5 4 4 2 3
6 6 6 8 9 9 9 10 11 12 12 3 1 2 3 2 5 6 6 5 2 3 5 3 4 4 4 4 4 4 3 6 3 2 3 4 5 3 4 3 6 2 1 4 2 2 3
6 6 5 5 7 8 8 9 9 10 11 2 2 2 1 3 5 3 4 2 8 10 7 1 4 3 5 5 0 3 2 2 4 3 1 2 6 5 7 6 1 2 1 1 3 2 3
Wind_Direction
340 348 351 348 346 344 344 343 341 340 339 339 338 336 333 331 329 327 325 320 321 320 318 315 308 299 190 310 253 91 147 150 128 122 139 134 132 134 163 207 187 223 266 255 242 209 105
340 343 350 349 346 345 344 342 341 340 339 338 337 333 329 328 326 324 323 320 316 315 309 304 289 152 202 260 109 142 133 118 133 123 163 142 169 173 147 233 188 220 236 268 287 145 147
354 350 354 351 347 343 341 340 340 341 339 337 333 328 327 327 324 324 322 318 312 306 297 283 248 200 75 222 62 136 116 118 148 136 143 198 143 137 98 262 294 260 301 20 55 106 128
11 353 357 347 343 340 339 338 339 339 338 334 330 327 325 324 324 323 323 316 307 293 269 246 188 181 244 281 127 128 114 92 107 75 127 177 93 90 177 295 348 17 49 46 198 134 163
7 353 354 349 346 343 340 339 338 338 335 329 325 323 321 321 324 323 325 319 310 269 184 175 118 216 272 107 166 186 152 134 109 59 300 176 94 181 5 87 17 4 139 58 119 176 147
1 355 353 348 344 341 339 339 337 334 328 324 320 319 317 319 322 326 322 318 67 95 124 165 257 304 261 189 171 140 156 139 137 125 99 127 87 111 45 86 186 175 95 17 67 183 127
355 351 347 346 343 342 340 337 334 326 324 322 321 317 317 321 325 323 326 51 30 36 234 189 210 264 276 290 182 139 147 138 107 103 125 191 108 187 190 191 179 132 102 51 247 256 227
352 348 346 347 346 342 339 335 326 324 323 321 318 317 323 322 324 321 149 108 117 203 312 224 238 278 272 249 48 112 131 130 134 140 121 58 203 205 184 188 182 165 112 260 293 83 131
344 345 344 346 344 340 336 327 325 323 321 319 318 322 326 324 322 146 221 208 42 140 146 293 189 205 232 144 178 191 134 150 133 126 169 148 214 167 179 181 144 143 138 196 227 17 48
346 342 342 344 340 338 330 326 324 323 321 319 321 326 327 328 16 298 253 342 311 178 55 274 232 265 158 181 91 157 173 139 124 168 157 181 169 157 162 203 137 206 195 174 238 73 277
342 341 343 342 340 337 330 327 325 323 320 320 327 326 324 334 280 332 306 332 313 60 75 161 175 119 78 135 159 18 18 61 147 153 114 234 153 166 166 202 166 210 163 167 186 148 69
341 341 344 344 342 336 331 328 326 323 321 325 326 321 324 128 146 252 307 316 58 46 68 340 358 124 82 15 34 72 59 38 96 91 60 194 195 120 200 201 185 115 83 41 48 81 50
342 341 343 344 343 335 332 329 326 323 325 329 325 318 253 113 268 314 309 48 42 76 329 343 340 1 96 30 48 62 63 36 60 89 112 14 19 331 38 129 91 91 81 28 39 53 200
341 343 343 343 343 332 332 331 327 327 334 333 327 322 200 219 261 329 51 58 63 319 316 319 0 354 77 360 14 26 61 48 14 43 84 130 352 8 332 37 153 155 155 151 158 171 193
339 344 341 343 343 337 335 333 329 331 338 336 321 321 303 277 205 110 73 56 144 316 301 331 342 56 21 11 102 76 50 39 43 22 126 131 123 331 40 21 45 171 71 184 108 18 87
340 345 347 347 343 338 336 333 331 334 337 339 45 15 327 334 133 64 69 104 48 339 316 25 90 43 60 353 68 71 22 337 343 30 173 93 92 17 313 18 22 94 93 74 12 129 146
341 346 345 345 342 338 337 335 333 336 336 331 44 43 270 345 41 46 83 58 33 334 15 34 38 55 83 16 51 63 351 31 358 355 59 73 76 329 39 19 336 6 19 39 108 95 150
340 341 347 350 340 339 339 338 338 339 337 47 74 36 318 19 52 22 43 345 14 343 7 21 79 60 52 27 39 82 99 352 334 308 47 359 107 67 74 292 347 52 62 102 120 206 61
344 344 347 347 343 341 341 341 343 345 353 82 79 278 331 58 86 16 6 21 57 17 11 16 28 32 33 46 88 59 55 333 360 45 86 8 35 86 14 333 2 46 336 92 90 80 95
344 347 349 353 345 343 343 345 345 350 23 74 73 28 337 42 46 108 78 12 23 17 61 49 18 50 45 29 15 78 29 338 349 22 49 78 75 120 171 139 144 72 340 353 97 103 157
347 347 351 354 346 346 346 349 349 352 52 72 33 343 197 358 5 49 73 37 17 14 17 30 39 45 53 65 33 39 4 348 360 357 31 82 101 73 76 86 89 146 156 319 339 162 147
343 350 351 350 348 347 350 351 355 354 289 73 104 114 18 61 1 41 12 10 38 358 39 1 69 51 40 91 115 155 19 29 6 336 39 7 124 117 100 42 56 189 219 219 240 282 283
343 346 352 349 348 348 357 356 358 2 37 76 348 7 96 317 26 65 294 174 33 87 28 61 60 85 52 90 172 206 168 100 34 13 36 60 120 92 165 7 358 21 322 183 219 275 308
340 345 351 350 348 350 0 1 3 12 51 114 185 105 78 336 70 121 131 96 88 56 122 25 50 79 349 68 97 77 64 85 70 5 66 112 88 84 159 35 179 240 272 250 188 75 34
334 343 349 349 346 349 3 3 6 8 25 85 35 95 109 88 242 25 96 103 94 23 76 87 27 253 260 50 62 50 357 36 27 46 21 43 118 82 121 144 308 315 15 29 13 244 6
332 341 351 348 345 348 7 5 3 6 17 92 81 119 103 122 251 176 131 149 160 159 356 126 107 44 72 78 62 90 186 242 341 19 58 61 74 107 118 109 192 232 184 338 336 265 14
328 337 348 351 340 345 5 6 4 8 12 88 32 52 91 113 249 142 179 176 134 117 162 302 331 38 44 76 87 122 236 188 161 184 216 17 19 117 130 153 289 111 293 302 163 215 42
312 322 342 347 334 335 356 5 3 9 10 70 223 19 103 154 268 194 175 139 123 126 149 207 47 353 44 72 118 195 139 210 110 236 198 170 131 167 128 112 270 182 106 198 177 297 321
292 311 336 340 321 325 347 1 3 7 3 63 73 17 21 136 237 281 262 223 183 178 134 96 172 168 170 90 87 108 89 103 160 213 142 232 180 184 176 210 137 169 201 171 150 182 289